PTR2217 CYOO-CYYZ

Flight info

Callsign PTR2217
Flight time 0h 6m
Altitude 2000
Route CYKF/26 ITSED SILTO·RNAVY/23
Aircraft DH8D

Departure

Time 2026-05-04 01:07
Airport Oshawa Executive Airport (CYOO)

Arrival

Time 2026-05-04 01:13
Airport Toronto Pearson International Airport (CYYZ)
Time Latitude Longitude Altitude Speed Heading
2026-05-04 01:07 43.86289 -79.34673 4972 ft 187 kts 274°
2026-05-04 01:07 43.86405 -79.36513 4975 ft 196 kts 274°
2026-05-04 01:07 43.86383 -79.38416 4883 ft 201 kts 257°
2026-05-04 01:08 43.85625 -79.40068 4662 ft 206 kts 233°
2026-05-04 01:08 43.84658 -79.41468 4324 ft 198 kts 231°
2026-05-04 01:08 43.83699 -79.42821 3957 ft 196 kts 231°
2026-05-04 01:08 43.82751 -79.44179 3607 ft 198 kts 231°
2026-05-04 01:09 43.81789 -79.45561 3260 ft 204 kts 231°
2026-05-04 01:09 43.80804 -79.46986 2917 ft 208 kts 230°
2026-05-04 01:09 43.79822 -79.48402 2759 ft 190 kts 230°
2026-05-04 01:09 43.78984 -79.49594 2720 ft 163 kts 231°
2026-05-04 01:10 43.78258 -79.50635 2664 ft 137 kts 231°
2026-05-04 01:10 43.77583 -79.51620 2675 ft 147 kts 232°
2026-05-04 01:10 43.76869 -79.52679 2669 ft 148 kts 231°
2026-05-04 01:10 43.76167 -79.53708 2491 ft 147 kts 231°
2026-05-04 01:11 43.75473 -79.54717 2298 ft 143 kts 231°
2026-05-04 01:11 43.74830 -79.55653 2097 ft 122 kts 230°
2026-05-04 01:11 43.74218 -79.56553 1964 ft 137 kts 231°
2026-05-04 01:11 43.73559 -79.57523 1768 ft 138 kts 230°
2026-05-04 01:12 43.72915 -79.58458 1561 ft 126 kts 229°
2026-05-04 01:12 43.72311 -79.59328 1406 ft 127 kts 229°
2026-05-04 01:12 43.71732 -79.60178 1225 ft 118 kts 230°
2026-05-04 01:12 43.71175 -79.61009 1074 ft 118 kts 230°
2026-05-04 01:13 43.70618 -79.61812 888 ft 113 kts 227°
2026-05-04 01:13 43.70087 -79.62558 676 ft 107 kts 228°
2026-05-04 01:13 43.69597 -79.63284 556 ft 98 kts 229°
2026-05-04 01:13 43.69369 -79.63591 547 ft 30 kts 219°
2026-05-04 01:14 43.69239 -79.63763 545 ft 21 kts 226°
2026-05-04 01:14 43.69262 -79.63920 546 ft 20 kts 314°
2026-05-04 01:14 43.69307 -79.63981 547 ft 0 kts 316°